Nome, AK

1:07 PM AKST on December 06, 2016 (GMT -0900)
Nome

Weather History for PAOM - November, 2011

Change the Weather History Date:

Monday, November 14, 2011

  Actual Average Record
Temperature  
Mean Temperature 10 °F 17 °F  
Max Temperature 17 °F 23 °F 39 °F (2014)
Min Temperature 2 °F 11 °F -16 °F (1989)
Degree Days  
Heating Degree Days 55 48  
Month to date heating degree days 676 639  
Since 1 July heating degree days 3423 3289  
Cooling Degree Days 0 0  
Month to date cooling degree days 0 0  
Year to date cooling degree days 0 3  
Moisture  
Dew Point -4 °F    
Average Humidity 0    
Maximum Humidity 0    
Minimum Humidity 0    
Precipitation  
Precipitation 0.00 in 0.04 in 0.51 in (2004)
Month to date precipitation 0.48 0.60  
Year to date precipitation 16.27 15.11  
Snow  
Snow 0.00 in 0.40 in 5.50 in (1994)
Month to date snowfall 7.3 5.4  
Since 1 July snowfall 16.4 10.6  
Since 1 September snowfall 16.4 10.6  
Snow Depth 13.00 in    
Sea Level Pressure  
Sea Level Pressure 30.06 in    
Wind  
Wind Speed 7 mph (North)    
Max Wind Speed 24 mph    
Max Gust Speed 29 mph    
Visibility 10 miles    
Events      
T = Trace of Precipitation, MM = Missing Value Source: NWS Daily Summary

Daily Weather History Graph

Daily Weather History Graph

Search for Another Location

Airport or City:

Trip Planner

Search our weather history database for the weather conditions in past years. The results will help you decide how hot, cold, wet, or windy it might be!

Date:

Astronomy

Nov. 14, 2011 Rise Set
Actual Time 10:30 AM AKST 5:00 PM AKST
Civil Twilight 9:29 AM AKST 6:01 PM AKST
Nautical Twilight 8:28 AM AKST 7:02 PM AKST
Astronomical Twilight 7:31 AM AKST 7:59 PM AKST
Moon 7:46 PM AKST (11/14) 2:36 PM AKST (11/14)
Length of Visible Light 8h 31m
Length of Day
6h 30m
Waning Gibbous, 85% of the Moon is Illuminated
Nov 14
Waning Gibbous
Nov 18
Last Quarter
Nov 24
New
Dec 2
First Quarter
Dec 10
Full

Hourly Weather History & Observations

Time (AKST) Temp. Windchill Dew Point Humidity Pressure Visibility Wind Dir Wind Speed Gust Speed Precip Events Conditions
12:53 AM 7.0 °F -13.1 °F -5.1 °F 58% 29.81 in 10.0 mi North 20.7 mph - N/A   Clear
1:53 AM 6.1 °F -12.2 °F -5.1 °F 60% 29.83 in 10.0 mi NNE 16.1 mph - N/A   Partly Cloudy
2:53 AM 8.1 °F -10.7 °F -6.0 °F 53% 29.85 in 10.0 mi North 18.4 mph - N/A   Partly Cloudy
3:53 AM 7.0 °F -4.5 °F -7.1 °F 53% 29.88 in 10.0 mi North 6.9 mph - N/A   Partly Cloudy
4:53 AM 8.1 °F -6.2 °F -8.0 °F 48% 29.90 in 10.0 mi NNE 10.4 mph 17.3 mph N/A   Partly Cloudy
5:53 AM 9.0 °F -2.2 °F -9.0 °F 44% 29.93 in 10.0 mi NNE 6.9 mph - N/A   Partly Cloudy
6:53 AM 7.0 °F -8.3 °F -8.0 °F 51% 29.95 in 10.0 mi North 11.5 mph - N/A   Partly Cloudy
7:53 AM 6.1 °F -10.9 °F -9.0 °F 50% 29.97 in 10.0 mi North 13.8 mph - N/A   Clear
8:53 AM 3.0 °F - -8.0 °F 60% 30.00 in 10.0 mi Calm Calm - N/A   Clear
9:53 AM 5.0 °F - -9.9 °F 50% 30.03 in 10.0 mi Calm Calm - N/A   Clear
10:53 AM 8.1 °F -7.0 °F -7.1 °F 50% 30.06 in 10.0 mi North 11.5 mph - N/A   Clear
11:53 AM 12.0 °F 5.9 °F -5.1 °F 46% 30.09 in 10.0 mi NNE 3.5 mph - N/A   Clear
12:53 PM 9.0 °F 0.6 °F -4.0 °F 56% 30.12 in 10.0 mi East 4.6 mph - N/A   Clear
1:53 PM 9.0 °F 2.4 °F -4.0 °F 56% 30.13 in 10.0 mi North 3.5 mph - N/A   Clear
2:53 PM 7.0 °F -3.3 °F -4.0 °F 61% 30.15 in 10.0 mi NW 5.8 mph - N/A   Partly Cloudy
3:53 PM 8.1 °F -3.2 °F -4.0 °F 58% 30.14 in 10.0 mi North 6.9 mph - N/A   Partly Cloudy
4:53 PM 8.1 °F -2.0 °F -4.0 °F 58% 30.15 in 10.0 mi NW 5.8 mph - N/A   Mostly Cloudy
5:53 PM 8.1 °F -4.3 °F -2.0 °F 64% 30.17 in 10.0 mi NW 8.1 mph - N/A   Mostly Cloudy
6:53 PM 8.1 °F -2.0 °F -2.0 °F 64% 30.17 in 10.0 mi NNW 5.8 mph - N/A   Partly Cloudy
7:53 PM 6.1 °F - -0.9 °F 73% 30.19 in 10.0 mi Calm Calm - N/A   Partly Cloudy
8:53 PM 10.9 °F 2.9 °F 3.9 °F 73% 30.21 in 10.0 mi North 4.6 mph - N/A   Partly Cloudy
9:53 PM 7.0 °F - 1.9 °F 80% 30.23 in 10.0 mi Calm Calm - N/A   Partly Cloudy
10:53 PM 17.1 °F 5.0 °F 3.9 °F 56% 30.24 in 10.0 mi North 10.4 mph - N/A   Clear
11:53 PM 10.9 °F - 1.9 °F 67% 30.26 in 10.0 mi Calm Calm - N/A   Clear